Regional Weather Roundup
Issued by NWS

Home | Current Version | Previous Version | Text Only | Print | Product List | Glossary On
Versions: 1 2 3 4 5 6 7 8 9 10 11 12 13 14 15 16 17 18 19 20 21 22 23 24 25 26 27 28 29 30 31 32 33 34 35 36 37 38 39 40 41 42 43 44 45 46 47 48 49 50
000
ASUS43 KMPX 261501
RWRMN
WEATHER ROUNDUP FOR MINNESOTA
NATIONAL WEATHER SERVICE TWIN CITIES/CHANHASSEN MN
900 AM CST FRI DEC 26 2014


NOTE: "FAIR" INDICATES FEW OR NO CLOUDS BELOW 12,000 FEET WITH NO
SIGNIFICANT WEATHER AND/OR OBSTRUCTIONS TO VISIBILITY. N/A MEANS
CURRENT SKY AND/OR WEATHER CONDITIONS ARE NOT AVAILABLE.

MNZ060>063-068>070-261600-
   Twin Cities Metro

CITY           SKY/WX    TMP DP  RH WIND       PRES   REMARKS
TWIN CITIES    LGT SNOW  32  28  85 N10       29.98R FOG     WCI  24
ST PAUL        CLOUDY    32  29  88 N10       30.00R WCI  24
CRYSTAL        CLOUDY    32  28  85 N10       29.98R WCI  24
BLAINE         CLOUDY    32  32 100 N9        29.99R WCI  24
LAKEVILLE      CLOUDY    30  28  93 N9        29.97R FOG     WCI  22
EDEN PRAIRIE   CLOUDY    31  27  85 N12       29.98R WCI  22
SOUTH ST PAUL  CLOUDY    33  31  92 N7        29.98R WCI  27
LAKE ELMO      CLOUDY    32  32 100 N10       29.98R FOG     WCI  24
$$
MNZ001>005-007-008-013>017-022>024-027-028-261600-
   Northwest Minnesota

CITY           SKY/WX    TMP DP  RH WIND       PRES   REMARKS
BEMIDJI        CLOUDY    23  19  85 N7        30.07R FOG     WCI  14
HALLOCK        CLOUDY    21  19  93 NW10      30.15R WCI  10
ROSEAU         FLURRIES  21  18  86 NW3       30.12R
WARROAD        CLOUDY    19  16  86 W3        30.12R
THIEF RVR FALL CLOUDY    21  18  86 NW7       30.12R WCI  13
CROOKSTON      FLURRIES  21  19  93 N9        30.16R WCI  11
FOSSTON        CLOUDY    21  19  93 NW9       30.11R FOG     WCI  11
DETROIT LAKES  CLOUDY    23  21  93 N6        30.09R WCI  16
MOORHEAD       CLOUDY    25  23  93 N10       30.14R WCI  15
PARK RAPIDS    CLOUDY    25  19  78 N7        30.06R WCI  17
MAHNOMEN       CLOUDY    22  20  91 N6        30.10R WCI  15
$$
MNZ006-009>011-018-025>026-261600-
   North Central Minnesota

CITY           SKY/WX    TMP DP  RH WIND       PRES   REMARKS
BAUDETTE       CLOUDY    22  18  85 NW8       30.08R FOG     WCI  12
FLAG ISLAND    CLOUDY    19  18  93 NW13      30.10R WCI   7
INTL FALLS     CLOUDY    22  18  85 NW7       30.05R WCI  13
WASKISH        CLOUDY    21  18  86 CALM      30.09R
BIG FORK       CLOUDY    23  19  86 N5        30.06R WCI  17
LONGVILLE      CLOUDY    25  21  86 N7        30.05R WCI  17
GRAND RAPIDS   CLOUDY    25  23  93 NW10      30.03R WCI  15
CRANE LAKE     CLOUDY    25  23  93 CALM      30.05R
ORR            CLOUDY    25  19  80 NW5       30.01R WCI  19
COOK           CLOUDY    25  23  93 NW5       30.03R WCI  19
WALKER         CLOUDY    23  20  87 N5        30.06R WCI  17
$$
MNZ012-019>021-037-261600-
   Northeast Minnesota

CITY           SKY/WX    TMP DP  RH WIND       PRES   REMARKS
DULUTH         CLOUDY    27  22  81 N7        30.00R WCI  19
ELY            CLOUDY    25  23  93 CALM      30.01R
HIBBING        CLOUDY    27  23  85 NW5       30.02R WCI  22
EVELETH        CLOUDY    27  23  86 NW3       30.03R
DULUTH HARBOR  CLOUDY    30  27  86 N8        30.05R WCI  23
TWO HARBORS    CLOUDY    30  25  80 CALM      30.00R
SILVER BAY     CLOUDY    30  23  74 NW3       30.00R
GRAND MARAIS     N/A     32  23  69 CALM      30.01S
G MARAIS ARPRT CLOUDY    25  19  80 CALM      29.96R
$$
MNZ029>031-032-039>041-046>048-054>057-064-261600-
   West Central Minnesota

CITY           SKY/WX    TMP DP  RH WIND       PRES   REMARKS
FERGUS FALLS   CLOUDY    23  21  93 N14       30.13R FOG     WCI  11
WHEATON        CLOUDY    21  19  93 NW15      30.13R WCI   8
MORRIS         PTCLDY    25  25 100 N16       30.07R WCI  12
ALEXANDRIA     CLOUDY    26  21  81 N7        30.05R WCI  18
ELBOW LAKE     CLOUDY    24  23  96 NW12      30.08R WCI  13
WADENA         CLOUDY    25  19  80 N7        30.06R WCI  17
GLENWOOD       CLOUDY    25  23  93 N10       30.05R WCI  15
APPLETON       CLOUDY    27  25  93 N15       30.07R WCI  15
BENSON         MIX PCPN  27  23  86 N8        30.06R WCI  18
ORTONVILLE     CLOUDY    25  21  86 N16       30.08R FOG     WCI  12
MADISON          N/A     28  27  93 N14       30.08R WCI  17
WILLMAR        FLURRIES  28  25  86 N9        30.06R WCI  20
$$
MNZ033>034-036-042>043-049>051-058-059-261600-
   Central Minnesota

CITY           SKY/WX    TMP DP  RH WIND       PRES   REMARKS
ST CLOUD       CLOUDY    31  24  75 N9        30.03R WCI  23
SAUK CENTRE    PTSUNNY   25  23  92 N5        30.04R WCI  19
PAYNESVILLE    CLOUDY    25  24  95 NW5       30.05R WCI  19
AITKIN         CLOUDY    28  23  80 N5        30.02R WCI  23
PINE RIVER     CLOUDY    25  21  86 N8        30.08R WCI  16
BRAINERD       CLOUDY    26  23  88 N8        30.04R WCI  18
STAPLES        CLOUDY    25  21  86 N9        30.05R WCI  15
LONG PRAIRIE   CLOUDY    25  23  93 NW8       30.04R WCI  16
LITTLE FALLS   MOCLDY    27  23  86 N3        30.04R
LITCHFIELD     CLOUDY    28  28 100 N7        30.04R WCI  21
BUFFALO        CLOUDY    29  26  90 N8        30.03R WCI  21
MAPLE LAKE     CLOUDY    29  28  95 N8        30.03R WCI  21
$$
MNZ037-044-045-052-053-261600-
   East Central Minnesota

CITY           SKY/WX    TMP DP  RH WIND       PRES   REMARKS
PRINCETON      CLOUDY    30  27  86 N8        30.03R WCI  23
MORA           MOCLDY    28  25  86 CALM      30.03R
CAMBRIDGE      MIX PCPN  30  23  74 N6        30.00R WCI  24
RUSH CITY      CLOUDY    29  27  92 N7        30.02R WCI  22
MOOSE LAKE     LGT SNOW  28  27  93 N5        30.01R WCI  23
HINCKLEY       CLOUDY    30  27  86 CALM      30.02R
CLOQUET        CLOUDY    27  23  86 N5        30.00S WCI  21
MCGREGOR       CLOUDY    28  25  86 N8        30.03R WCI  20
$$
MNZ071>073-080-081-089-090-097-098-261600-
   Southwest Minnesota

CITY           SKY/WX    TMP DP  RH WIND       PRES   REMARKS
MONTEVIDEO     CLOUDY    27  27 100 N13       30.07R WCI  16
GRANITE FALLS  CLOUDY    27  25  91 NW8       30.06S WCI  19
CANBY          CLOUDY    26  24  93 N14       30.08R WCI  14
MARSHALL       CLOUDY    27  21  80 N17       30.04R WCI  14
REDWOOD FALLS  CLOUDY    29  26  89 N12G18    30.03R WCI  19
OLIVIA         CLOUDY    28  27  93 N7        30.04R WCI  21
PIPESTONE      CLOUDY    25  25 100 N14G20    30.00R WCI  13
WINDOM         CLOUDY    28  28 100 N20       29.98R WCI  15
WORTHINGTON    CLOUDY    27 -20  12 N17G25    29.98R WCI  14
JACKSON        CLOUDY    30  28  93 N14       29.97R WCI  20
TRACY          CLOUDY    28  27  96 N13       30.02S FOG     WCI  17
SLAYTON        CLOUDY    26  25  97 N15G22    30.00R FOG     WCI  13
$$
MNZ065>067-074>077-082>085-091>093-261600-
   South Central Minnesota

CITY           SKY/WX    TMP DP  RH WIND       PRES   REMARKS
MANKATO        CLOUDY    32  27  80 N14       29.97R WCI  22
NEW ULM        CLOUDY    30  28  93 N7G17     29.99S WCI  23
ST JAMES       CLOUDY    32  30  93 NW15G21   29.99R WCI  22
FAIRMONT       CLOUDY    30  27  86 N18       29.95R WCI  18
GLENCOE        CLOUDY    31  29  93 N14       30.00R WCI  21
FARIBAULT      CLOUDY    34  30  86 N9        29.96R FOG     WCI  26
OWATONNA       CLOUDY    32  30  93 N10       29.94R FOG     WCI  24
ALBERT LEA     CLOUDY    32  32 100 N9        29.92R FOG     WCI  24
$$
MNZ078>079-086>088-094>096-261600-
   Southeast Minnesota

CITY           SKY/WX    TMP DP  RH WIND       PRES   REMARKS
ROCHESTER      FOG       29  28  96 N9        29.92R VSB 1/4 WCI  20
RED WING       CLOUDY    34  30  86 N3        29.95R
STANTON        CLOUDY    33  31  90 N8        29.95R FOG     WCI  26
DODGE CENTER   CLOUDY    32  30  93 N9        29.92R FOG     WCI  24
WINONA         CLOUDY    30  30 100 CALM      29.94R FOG
AUSTIN         FOG       30  28  93 N8        29.91R VSB 3/4 WCI  23
PRESTON        SUNNY     27  27  99 CALM      29.91R FOG
$$
ABBREVIATIONS USED IN REMARKS
   TC - TEMPERATURES IN CELSIUS
  WCI - WIND CHILL INDEX
   HX - HEAT INDEX
  VSB - VISIBILITY
$$



USA.gov is the U.S. government's official web portal to all federal, state and local government web resources and services.